DELTA 1 DEB, 10184

Orbit data source: Space-Track

DELTA 1 DEB, 10184 is space debris in LEO originally from a launch on Thu, 14 Jul 1977 UTC launched from the Air Force Eastern Test Range (AFETR). Debris objects in space refer to the collection of defunct objects orbiting the Earth. Examples of debris include non-operational satellites, rocket bodies, and fragments generated from explosions, collisions, or faulty payload assembly.

Loading next visibility...
Identifier
10184, 1977-065N
Orbit
LEO
Country
Flag of USUS
Related business
Manufacturer
Unknown
Mission
Spacecraft
Bus & Motor
Unknown
Mass
Unknown
Launch date (UTC)
1977-07-14 (48 years ago)
Launch vehicle
Unknown
Launch site
Air Force Eastern Test Range (AFETR)
Object type
Payload
Rocket body
Debris
Shape & HBR
Unknown shape, 1.7 m
Radar Cross Section
Large (>1 m²)

Expand to show TLE details & history
Last TLE update: 12 hours ago

TLE from 12 hours ago
0 DELTA 1 DEB
1 10184U 77065N   25350.35048886  .00002667  00000-0  62835-3 0  9994
2 10184  29.0738 130.0027 0756959 170.9042 190.6116 13.48984450342551
Epoch: 2025-12-16T08:24Z
TLE epoch observation values (Epoch: 2025-12-16T08:24:42.237Z)
Latitude
-0.00001°
Longitude
-81.40926°
Altitude
1,630.189 km
Speed
6.791 km/s
True Right ascension
08h 40m 00s
True Declination
0° 00' 00"
Sunlit
Object was in full shadow at epoch
Visualization orbit readout
Latitude
Unknown
Longitude
Unknown
Altitude
Unknown
Speed
Unknown
Apparent Right ascension
Unknown
Apparent Declination
Unknown
Sunlit
N/A
Visualization observer readout
Local Sidereal Time
19:12:14
Azimuth
Unknown
Elevation
Unknown
Doppler factor
Unknown
Orbital elements
Apogee altitude
1,644.391 km
Perigee altitude
515.313 km
Semi-major axis
7,457.989 km
Eccentricity
0.0757
Inclination
29.0738°
RAAN
130.0027°
Arg. of periapsis
170.9042°
True anomaly
189.15073°
Mean anomaly
190.6116°
Eccentric anomaly
189.8683°
Mean motion
3.36985 °/min
Orbital period
106.83 mins
BSTAR
0.00062835
Loading maneuver chart data...
Computing Atmospheric mass density...
Loading historical data...
Loading historical data...
Loading historical data...
Loading historical data...
Loading historical data...
Loading historical data...
Loading historical data...

Documentation

Showing up to 5 results
|